Terug naar catalogus

STARLINK-5719

ActiefCommunicatieVLEO
NORAD 55609·PAYLOAD·🇺🇸 United States

Gelanceerd Feb 12, 2023 vanaf Cape Canaveral Space Force Station

Loading…

Volgende Passages (komende 24 uur)

TLE

VersSource: CelesTrak SupGP

Epoch: Sep 15, 2026, 02:43 UTC

1 55609C 23020AS  26258.11368056 -.00011369  00000+0 -41186-3 0  2587
2 55609  43.0042   4.5356 0001747 264.8998 268.2536 15.27579132    13

Volg STARLINK-5719 in realtime met AllMySat

Download on the App Store